This is the latest recevied weather packets stored in our database for station/object iz1wiy-2. If no packets are shown the sender has not sent any weather packets the latest 1 day(s).
| Time | Temp. | Humidity | Pressure | Rain* | Wind** | Luminosity | Snow |
|---|---|---|---|---|---|---|---|
| 1778014803 | 16.67° C | 82% | 1011.9 hPa | 0 mm | 0.89 m/s, 9° | - | - |
| 1778014503 | 16.67° C | 82% | 1011.9 hPa | 0 mm | 0.89 m/s, 22° | - | - |
| 1778014203 | 16.67° C | 82% | 1012 hPa | 0 mm | 0.89 m/s, 18° | - | - |
| 1778013903 | 16.67° C | 82% | 1012.1 hPa | 0 mm | 0.89 m/s, 15° | - | - |
| 1778013603 | 16.67° C | 82% | 1012.1 hPa | 0 mm | 0.89 m/s, 24° | - | - |
| 1778013303 | 16.67° C | 82% | 1012.1 hPa | 0 mm | 1.34 m/s, 29° | - | - |
| 1778013003 | 16.11° C | 82% | 1012.1 hPa | 0 mm | 1.79 m/s, 34° | - | - |
| 1778012703 | 16.11° C | 82% | 1012.2 hPa | 0 mm | 1.79 m/s, 29° | - | - |
| 1778012403 | 16.11° C | 82% | 1012.2 hPa | 0 mm | 1.34 m/s, 26° | - | - |
| 1778012103 | 16.11° C | 82% | 1012.3 hPa | 0 mm | 1.34 m/s, 25° | - | - |
| 1778011803 | 16.11° C | 82% | 1012.3 hPa | 0 mm | 1.34 m/s, 20° | - | - |
| 1778011503 | 16.11° C | 82% | 1012.3 hPa | 0 mm | 1.79 m/s, 23° | - | - |
| 1778011204 | 16.67° C | 82% | 1012.3 hPa | 0 mm | 1.79 m/s, 29° | - | - |
| 1778010903 | 16.67° C | 82% | 1012.3 hPa | 0 mm | 1.34 m/s, 30° | - | - |
| 1778010603 | 16.67° C | 82% | 1012.3 hPa | 0 mm | 1.34 m/s, 31° | - | - |
| 1778010303 | 16.67° C | 81% | 1012.3 hPa | 0 mm | 1.79 m/s, 26° | - | - |
| 1778010003 | 16.67° C | 81% | 1012.2 hPa | 0 mm | 1.79 m/s, 25° | - | - |
| 1778009703 | 16.67° C | 81% | 1012.2 hPa | 0 mm | 1.34 m/s, 32° | - | - |
| 1778009403 | 17.22° C | 81% | 1012.1 hPa | 0 mm | 0.89 m/s, 31° | - | - |
| 1778009103 | 17.22° C | 81% | 1012 hPa | 0 mm | 0.89 m/s, 27° | - | - |
| 1778008803 | 17.22° C | 81% | 1012 hPa | 0 mm | 0.89 m/s, 30° | - | - |
| 1778008503 | 17.22° C | 80% | 1012 hPa | 0 mm | 0.89 m/s, 18° | - | - |
| 1778008204 | 17.78° C | 80% | 1012.1 hPa | 0 mm | 0.89 m/s, 333° | - | - |
| 1778007903 | 17.78° C | 80% | 1011.9 hPa | 0 mm | 0.45 m/s, 308° | - | - |
| 1778007603 | 17.78° C | 80% | 1011.9 hPa | 0 mm | 0 m/s | - | - |
* Rain latest hour (hover to see other rain measurements)
** Current wind speed in m/s (hover to see current wind gust speed)